Flag for United Kingdom Weather past 2 weeks in Ipswich, England, United Kingdom

Now
59 °F

Passing clouds.


Feels Like: 59 °F
Forecast: 56 / 73 °F
Wind: 2 mph from Northeast

Location: Wattisham

Current Time: Aug 2, 2014 at 5:55:07 AM

Latest Report: Aug 2, 2014 at 4:50 AM


Visibility: N/A

Pressure: 29.68 "Hg

Humidity: 94%

Dew point: 57 °F

Location of IpswichLocation

Historic Weather in Ipswich — Graph

°F

Ipswich temperature yesterday

Maximum temperature yesterday: 75 °F (at 3:50 PM)
Minimum temperature yesterday: 55 °F (at 4:50 AM)
Average temperature yesterday: 66 °F

Past Weeks' High & Low Weather Summary

 TemperatureHumidityPressure
High82 °F (Jul 18, 3:50 PM)100% (Jul 18, 3:50 AM)30.21 "Hg (Jul 18, 3:50 AM)
Low54 °F (Jul 30, 4:50 AM)30% (Jul 24, 3:50 PM)29.68 "Hg (Aug 2, 3:50 AM)
Average67 °F74%29.97 "Hg
* Reported Jul 18 3:50 AM — Aug 2 3:50 AM, Ipswich, Weather by CustomWeather, © 2014

Note: Actual official high and low records may vary slightly from our data, if they occured in-between our weather recording intervals... More about our weather records

Advertising

Ipswich weather history for previous 24 hours

 ConditionsComfort  
Time TempWeatherWind HumidityBarometerVisibility
3:50 AM
Aug 2
59 °FFog.7 mph100%29.68 "Hg4 mi
2:50 AM59 °FRain showers. Passing clouds.6 mph94%29.71 "Hg2 mi
1:50 AM61 °FPassing clouds.7 mph83%29.71 "HgN/A
12:50 AM59 °FPassing clouds.3 mph82%29.71 "HgN/A
11:50 PM
Aug 1
59 °FPassing clouds.3 mph82%29.71 "HgN/A
10:50 PM63 °FPassing clouds.6 mph73%29.74 "HgN/A
9:50 PM64 °FPassing clouds.6 mph68%29.74 "HgN/A
8:50 PM66 °FPartly sunny.5 mph64%29.71 "HgN/A
7:50 PM68 °FPartly sunny.8 mph60%29.71 "HgN/A
6:50 PM72 °FPartly sunny.10 mph53%29.71 "HgN/A
5:50 PM73 °FMild.13 mph50%29.71 "HgN/A
4:50 PM75 °FPassing clouds.9 mph44%29.71 "HgN/A
3:50 PM75 °FPassing clouds.10 mph41%29.74 "HgN/A
2:50 PM73 °FPassing clouds.10 mph50%29.74 "HgN/A
1:50 PM73 °FPartly sunny.10 mph53%29.77 "HgN/A
12:50 PM72 °FPartly sunny.10 mph61%29.77 "HgN/A
11:50 AM70 °FPartly sunny.9 mph64%29.77 "HgN/A
11:01 AM70 °FPartly sunny.9 mph69%29.80 "HgN/A
9:50 AM68 °FPartly sunny.8 mph73%29.80 "HgN/A
8:50 AM66 °FBroken clouds.6 mph78%29.83 "HgN/A
7:50 AM63 °FPartly sunny.5 mph83%29.83 "HgN/A
6:50 AM61 °FSunny.6 mph88%29.83 "Hg10 mi
5:50 AM57 °FClear.7 mph94%29.83 "Hg10 mi
Weather by CustomWeather, © 2014

See weather overviewHow to use our weather pages